H1 CPF 2 NER 2025 4 10 9 100 01 glonass132 H2 1401201 9132 39620 2025 4 10 0 0 0 2025 4 13 23 45 0 900 1 1 0 0 0 1 H9 10 0 60775 0.00000 0 18135218.982 -16556523.292 -6992547.662 10 0 60775 900.00000 0 17337652.574 -15848599.007 -9999545.625 10 0 60775 1800.00000 0 16394593.742 -14786965.374 -12812778.869 10 0 60775 2700.00000 0 15366623.790 -13372420.512 -15377656.916 10 0 60775 3600.00000 0 14314627.545 -11619082.511 -17644359.781 10 0 60775 4500.00000 0 13297149.015 -9554053.118 -19568805.398 10 0 60775 5400.00000 0 12367860.077 -7216545.327 -21113509.188 10 0 60775 6300.00000 0 11573248.459 -4656508.881 -22248318.972 10 0 60775 7200.00000 0 10950622.413 -1932808.722 -22951010.684 10 0 60775 8100.00000 0 10526516.409 888969.974 -23207732.830 10 0 60775 9000.00000 0 10315565.680 3739000.679 -23013290.293 10 0 60775 9900.00000 0 10319897.997 6545876.676 -22371261.016 10 0 60775 10800.00000 0 10529069.466 9239344.824 -21293942.151 10 0 60775 11700.00000 0 10920548.273 11752998.692 -19802125.455 10 0 60775 12600.00000 0 11460727.164 14026818.953 -17924705.031 10 0 60775 13500.00000 0 12106422.826 16009454.824 -15698123.936 10 0 60775 14400.00000 0 12806799.385 17660150.767 -13165669.454 10 0 60775 15300.00000 0 13505634.813 18950237.209 -10376630.279 10 0 60775 16200.00000 0 14143833.888 19864122.344 -7385331.892 10 0 60775 17100.00000 0 14662080.391 20399743.118 -4250069.303 10 0 60775 18000.00000 0 15003514.872 20568456.614 -1031958.846 10 0 60775 18900.00000 0 15116322.876 20394377.030 2206267.330 10 0 60775 19800.00000 0 14956122.291 19913187.370 5401499.043 10 0 60775 20700.00000 0 14488047.059 19170477.557 8491492.293 10 0 60775 21600.00000 0 13688437.682 18219681.004 11416094.049 10 0 60775 22500.00000 0 12546066.060 17119698.791 14118422.354 10 0 60775 23400.00000 0 11062842.384 15932313.651 16545977.728 10 0 60775 24300.00000 0 9253974.147 14719504.522 18651663.704 10 0 60775 25200.00000 0 7147570.815 13540776.002 20394696.696 10 0 60775 26100.00000 0 4783711.194 12450615.749 21741388.010 10 0 60775 27000.00000 0 2213013.107 11496186.675 22665783.873 10 0 60775 27900.00000 0 -505234.439 10715350.151 23150152.415 10 0 60775 28800.00000 0 -3305298.462 10135101.934 23185309.711 10 0 60775 29700.00000 0 -6117496.016 9770484.703 22770780.219 10 0 60775 30600.00000 0 -8870851.922 9624020.905 21914789.954 10 0 60775 31500.00000 0 -11495810.794 9685687.784 20634093.806 10 0 60775 32400.00000 0 -13926892.215 9933433.904 18953641.241 10 0 60775 33300.00000 0 -16105180.562 10334214.166 16906087.359 10 0 60775 34200.00000 0 -17980547.970 10845498.971 14531158.883 10 0 60775 35100.00000 0 -19513520.050 11417193.738 11874887.137 10 0 60775 36000.00000 0 -20676708.599 11993888.175 8988722.262 10 0 60775 36900.00000 0 -21455753.299 12517341.099 5928545.127 10 0 60775 37800.00000 0 -21849734.470 12929096.912 2753595.163 10 0 60775 38700.00000 0 -21871040.639 13173124.274 -474666.029 10 0 60775 39600.00000 0 -21544697.018 13198366.506 -3693734.160 10 0 60775 40500.00000 0 -20907183.204 12961096.679 -6841262.773 10 0 60775 41400.00000 0 -20004789.496 12426978.282 -9856262.300 10 0 60775 42300.00000 0 -18891580.316 11572744.332 -12680274.946 10 0 60775 43200.00000 0 -17627049.581 10387423.406 -15258503.160 10 0 60775 44100.00000 0 -16273565.696 8873059.716 -17540870.182 10 0 60775 45000.00000 0 -14893712.691 7044895.149 -19482992.296 10 0 60775 45900.00000 0 -13547638.519 4931003.460 -21047044.081 10 0 60775 46800.00000 0 -12290521.336 2571389.451 -22202499.766 10 0 60775 47700.00000 0 -11170259.921 16588.232 -22926736.032 10 0 60775 48600.00000 0 -10225485.271 -2674179.452 -23205484.073 10 0 60775 49500.00000 0 -9483977.168 -5435221.221 -23033121.395 10 0 60775 50400.00000 0 -8961552.893 -8196865.998 -22412796.724 10 0 60775 51300.00000 0 -8661475.550 -10888133.497 -21356384.481 10 0 60775 52200.00000 0 -8574407.794 -13439469.960 -19884268.433 10 0 60775 53100.00000 0 -8678913.786 -15785436.457 -18024957.501 10 0 60775 54000.00000 0 -8942488.900 -17867237.466 -15814540.019 10 0 60775 54900.00000 0 -9323074.167 -19634983.651 -13295986.173 10 0 60775 55800.00000 0 -9770991.464 -21049593.438 -10518311.611 10 0 60775 56700.00000 0 -10231217.194 -22084252.964 -7535618.423 10 0 60775 57600.00000 0 -10645897.238 -22725372.567 -4406032.477 10 0 60775 58500.00000 0 -10956995.355 -22972999.314 -1190558.716 10 0 60775 59400.00000 0 -11108961.079 -22840668.373 2048122.072 10 0 60775 60300.00000 0 -11051302.256 -22354700.208 5246890.000 10 0 60775 61200.00000 0 -10740951.380 -21552974.359 8343430.560 10 0 60775 62100.00000 0 -10144323.895 -20483233.157 11277460.920 10 0 60775 63000.00000 0 -9238980.093 -19200988.735 13991912.787 10 0 60775 63900.00000 0 -8014819.506 -17767123.497 16434047.690 10 0 60775 64800.00000 0 -6474756.974 -16245286.876 18556482.463 10 0 60775 65700.00000 0 -4634851.886 -14699199.330 20318104.971 10 0 60775 66600.00000 0 -2523885.420 -13189977.766 21684862.773 10 0 60775 67500.00000 0 -182403.961 -11773594.924 22630410.422 10 0 60775 68400.00000 0 2338730.898 -10498578.762 23136604.205 10 0 60775 69300.00000 0 4980224.890 -9404047.165 23193836.250 10 0 60775 70200.00000 0 7676587.712 -8518158.607 22801203.169 10 0 60775 71100.00000 0 10358631.039 -7857041.579 21966507.451 10 0 60775 72000.00000 0 12956124.789 -7424245.455 20706092.838 10 0 60775 72900.00000 0 15400502.419 -7210733.621 19044517.795 10 0 60775 73800.00000 0 17627504.378 -7195417.319 17014073.917 10 0 60775 74700.00000 0 19579651.498 -7346206.298 14654158.735 10 0 60775 75600.00000 0 21208447.291 -7621531.224 12010514.844 10 0 60775 76500.00000 0 22476219.282 -7972273.369 9134349.536 10 0 60775 77400.00000 0 23357524.168 -8344020.423 6081351.267 10 0 60775 78300.00000 0 23840059.570 -8679553.791 2910621.144 10 0 60775 79200.00000 0 23925045.219 -8921463.187 -316460.823 10 0 60775 80100.00000 0 23627058.207 -9014778.899 -3537413.587 10 0 60775 81000.00000 0 22973329.388 -8909511.309 -6689855.070 10 0 60775 81900.00000 0 22002530.167 -8562990.824 -9712701.807 10 0 60775 82800.00000 0 20763100.033 -7941909.511 -12547345.538 10 0 60775 83700.00000 0 19311184.199 -7023977.851 -15138784.470 10 0 60775 84600.00000 0 17708266.918 -5799125.800 -17436687.658 10 0 60775 85500.00000 0 16018598.794 -4270196.103 -19396372.068 10 0 60776 0.00000 0 14306525.203 -2453098.903 -20979673.360 10 0 60776 900.00000 0 12633826.142 -376417.751 -22155694.217 10 0 60776 1800.00000 0 11057180.745 1919516.555 -22901413.366 10 0 60776 2700.00000 0 9625859.401 4384051.458 -23202145.827 10 0 60776 3600.00000 0 8379742.463 6958078.063 -23051842.525 10 0 60776 4500.00000 0 7347747.971 9576261.772 -22453223.409 10 0 60776 5400.00000 0 6546734.950 12169546.708 -21417740.236 10 0 60776 6300.00000 0 5980928.900 14667830.766 -19965368.478 10 0 60776 7200.00000 0 5641894.269 17002700.260 -18124231.165 10 0 60776 8100.00000 0 5509055.541 19110110.137 -15930060.813 10 0 60776 9000.00000 0 5550745.262 20932897.337 -13425508.989 10 0 60776 9900.00000 0 5725734.734 22423021.341 -10659316.368 10 0 60776 10800.00000 0 5985182.204 23543437.110 -7685359.308 10 0 60776 11700.00000 0 6274915.239 24269520.915 -4561591.827 10 0 60776 12600.00000 0 6537949.263 24589988.447 -1348904.434 10 0 60776 13500.00000 0 6717133.891 24507266.275 1890076.711 10 0 60776 14400.00000 0 6757812.978 24037301.203 5092225.434 10 0 60776 15300.00000 0 6610383.719 23208816.246 8195160.151 10 0 60776 16200.00000 0 6232644.545 22062045.788 11138471.601 10 0 60776 17100.00000 0 5591830.916 20647004.762 13864908.360 10 0 60776 18000.00000 0 4666251.762 19021366.493 16321495.955 10 0 60776 18900.00000 0 3446456.798 17248040.262 18460567.236 10 0 60776 19800.00000 0 1935885.238 15392551.876 20240683.927 10 0 60776 20700.00000 0 150968.730 13520338.321 21627431.903 10 0 60776 21600.00000 0 -1879315.476 11694070.393 22594075.746 10 0 60776 22500.00000 0 -4114421.969 9971115.247 23122061.184 10 0 60776 23400.00000 0 -6503703.992 8401244.133 23201357.235 10 0 60776 24300.00000 0 -8988308.213 7024679.673 22830633.009 10 0 60776 25200.00000 0 -11503418.647 5870562.262 22017267.284 10 0 60776 26100.00000 0 -13980756.788 4955897.413 20777191.914 10 0 60776 27000.00000 0 -16351234.813 4285025.644 19134573.071 10 0 60776 27900.00000 0 -18547652.735 3849634.809 17121337.019 10 0 60776 28800.00000 0 -20507328.758 3629312.400 14776549.793 10 0 60776 29700.00000 0 -22174554.964 3592613.121 12145662.558 10 0 60776 30600.00000 0 -23502777.683 3698595.891 9279636.751 10 0 60776 31500.00000 0 -24456413.112 3898765.186 6233965.220 10 0 60776 32400.00000 0 -25012223.665 4139334.966 3067607.452 10 0 60776 33300.00000 0 -25160198.477 4363720.142 -158141.435 10 0 60776 34200.00000 0 -24903901.764 4515151.025 -3380826.893 10 0 60776 35100.00000 0 -24260274.586 4539301.052 -6538034.377 10 0 60776 36000.00000 0 -23258898.049 4386817.309 -9568589.553 10 0 60776 36900.00000 0 -21940748.209 4015647.270 -12413736.552 10 0 60776 37800.00000 0 -20356493.982 3393063.377 -15018271.979 10 0 60776 38700.00000 0 -18564408.301 2497299.433 -17331613.060 10 0 60776 39600.00000 0 -16627978.899 1318728.725 -19308779.434 10 0 60776 40500.00000 0 -14613317.636 -139467.393 -20911269.668 10 0 60776 41400.00000 0 -12586475.771 -1861170.642 -22107815.430 10 0 60776 42300.00000 0 -10610776.707 -3817744.531 -22874998.418 10 0 60776 43200.00000 0 -8744277.190 -5968985.708 -23197717.594 10 0 60776 44100.00000 0 -7037462.820 -8264570.758 -23069496.949 10 0 60776 45000.00000 0 -5531274.292 -10645940.357 -22492626.880 10 0 60776 45900.00000 0 -4255547.155 -13048544.104 -21478135.327 10 0 60776 46800.00000 0 -3227930.798 -15404353.850 -20045587.989 10 0 60776 47700.00000 0 -2453332.440 -17644541.436 -18222720.255 10 0 60776 48600.00000 0 -1923909.827 -19702209.279 -16044906.858 10 0 60776 49500.00000 0 -1619613.114 -21515059.357 -13554478.617 10 0 60776 50400.00000 0 -1509253.010 -23027888.083 -10799898.994 10 0 60776 51300.00000 0 -1552049.640 -24194801.473 -7834816.318 10 0 60776 52200.00000 0 -1699595.751 -24981056.466 -4717010.430 10 0 60776 53100.00000 0 -1898149.890 -25364449.958 -1507255.097 10 0 60776 54000.00000 0 -2091160.772 -25336196.363 1731880.463 10 0 60776 54900.00000 0 -2221913.910 -24901256.394 4937266.069 10 0 60776 55800.00000 0 -2236186.345 -24078103.407 8046455.347 10 0 60776 56700.00000 0 -2084794.993 -22897937.881 10998914.859 10 0 60776 57600.00000 0 -1725928.976 -21403384.229 13737212.258 10 0 60776 58500.00000 0 -1127165.915 -19646726.324 16208139.190 10 0 60776 59400.00000 0 -267086.038 -17687757.472 18363746.494 10 0 60776 60300.00000 0 863584.398 -15591336.661 20162271.526 10 0 60776 61200.00000 0 2261348.598 -13424754.755 21568940.000 10 0 60776 62100.00000 0 3909859.551 -11255021.631 22556627.736 10 0 60776 63000.00000 0 5780388.097 -9146187.798 23106370.806 10 0 60776 63900.00000 0 7832818.642 -7156811.809 23207715.682 10 0 60776 64800.00000 0 10017130.505 -5337677.911 22858904.233 10 0 60776 65700.00000 0 12275303.003 -3729857.300 22066891.489 10 0 60776 66600.00000 0 14543564.996 -2363191.634 20847197.110 10 0 60776 67500.00000 0 16754895.764 -1255259.593 19223594.416 10 0 60776 68400.00000 0 18841674.004 -410867.118 17227643.540 10 0 60776 69300.00000 0 20738365.761 177919.648 14898077.957 10 0 60776 70200.00000 0 22384140.720 531202.114 12280056.074 10 0 60776 71100.00000 0 23725309.224 680163.157 9424291.849 10 0 60776 72000.00000 0 24717479.680 665513.788 6386080.584 10 0 60776 72900.00000 0 25327347.445 535538.363 3224237.898 10 0 60776 73800.00000 0 25534041.300 343820.642 -28.513 10 0 60776 74700.00000 0 25329971.688 146746.229 -3224293.345 10 0 60776 75600.00000 0 24721145.283 886.262 -6386112.479 10 0 60776 76500.00000 0 23726932.458 -39627.752 -9424223.624 10 0 60776 77400.00000 0 22379296.654 74372.477 -12279726.155 10 0 60776 78300.00000 0 20721516.958 384776.451 -14897217.774 10 0 60776 79200.00000 0 18806456.140 924185.297 -17225866.383 10 0 60776 80100.00000 0 16694445.306 1714293.656 -19220396.572 10 0 60776 81000.00000 0 14450872.264 2764732.470 -20841971.741 10 0 60776 81900.00000 0 12143573.148 4072423.091 -22058954.657 10 0 60776 82800.00000 0 9840135.152 5621471.972 -22847531.426 10 0 60776 83700.00000 0 7605222.186 7383612.784 -23192186.299 10 0 60776 84600.00000 0 5498034.472 9319179.962 -23086017.409 10 0 60776 85500.00000 0 3570007.938 11378575.328 -22530886.356 10 0 60777 0.00000 0 1862849.567 13504168.437 -21537397.773 10 0 60777 900.00000 0 406990.164 15632554.064 -20124707.414 10 0 60777 1800.00000 0 -779478.201 17697070.723 -18320162.692 10 0 60777 2700.00000 0 -1691338.298 19630479.202 -16158779.717 10 0 60777 3600.00000 0 -2336232.407 21367686.090 -13682567.290 10 0 60777 4500.00000 0 -2734097.236 22848398.631 -10939709.957 10 0 60777 5400.00000 0 -2916073.163 24019598.312 -7983625.902 10 0 60777 6300.00000 0 -2922934.668 24837727.992 -4871918.305 10 0 60777 7200.00000 0 -2803109.523 25270499.274 -1665241.363 10 0 60777 8100.00000 0 -2610372.219 25298242.904 1573895.718 10 0 60777 9000.00000 0 -2401311.195 24914744.517 4782362.019 10 0 60777 9900.00000 0 -2232679.266 24127530.161 7897649.714 10 0 60777 10800.00000 0 -2158741.586 22957589.797 10859104.540 10 0 60777 11700.00000 0 -2228735.310 21438551.067 13609116.501 10 0 60777 12600.00000 0 -2484550.056 19615339.219 16094246.482 10 0 60777 13500.00000 0 -2958728.291 17542380.855 18266266.239 10 0 60777 14400.00000 0 -3672870.701 15281428.239 20083091.437 10 0 60777 15300.00000 0 -4636513.895 12899096.605 21509590.006 10 0 60777 16200.00000 0 -5846527.408 10464218.330 22518251.061 10 0 60777 17100.00000 0 -7287054.809 8045124.828 23089702.677 10 0 60777 18000.00000 0 -8930000.761 5706969.290 23213070.013 10 0 60777 18900.00000 0 -10736043.024 3509200.891 22886168.434 10 0 60777 19800.00000 0 -12656126.703 1503294.093 22115529.428 10 0 60777 20700.00000 0 -14633378.201 -269174.457 20916260.096 10 0 60777 21600.00000 0 -16605359.241 -1778023.748 19311739.955 10 0 60777 22500.00000 0 -18506567.542 -3005481.099 17333161.476 10 0 60777 23400.00000 0 -20271080.718 -3946669.971 15018923.515 10 0 60777 24300.00000 0 -21835234.248 -4609554.793 12413889.179 10 0 60777 25200.00000 0 -23140223.004 -5014347.030 9568522.014 10 0 60777 26100.00000 0 -24134518.885 -5192398.743 6537916.551 10 0 60777 27000.00000 0 -24776004.609 -5184631.016 3380741.125 10 0 60777 27900.00000 0 -25033735.271 -5039563.699 158112.489 10 0 60777 28800.00000 0 -24889254.362 -4811029.370 -3067576.843 10 0 60777 29700.00000 0 -24337409.280 -4555667.568 -6233856.678 10 0 60777 30600.00000 0 -23386631.786 -4330304.462 -9279380.188 10 0 60777 31500.00000 0 -22058670.933 -4189328.085 -12145105.256 10 0 60777 32400.00000 0 -20387788.546 -4182169.561 -14775433.738 10 0 60777 33300.00000 0 -18419449.554 -4350996.572 -17119286.974 10 0 60777 34200.00000 0 -16208560.434 -4728716.706 -19131096.890 10 0 60777 35100.00000 0 -13817327.785 -5337375.623 -20771693.628 10 0 60777 36000.00000 0 -11312824.909 -6187018.789 -22009072.408 10 0 60777 36900.00000 0 -8764366.561 -7275066.341 -22819024.499 10 0 60777 37800.00000 0 -6240800.194 -8586229.457 -23185619.586 10 0 60777 38700.00000 0 -3807825.727 -10092973.992 -23101529.504 10 0 60777 39600.00000 0 -1525455.060 -11756514.283 -22568186.087 10 0 60777 40500.00000 0 554282.989 -13528297.656 -21595769.028 10 0 60777 41400.00000 0 2389296.552 -15351919.328 -20203022.709 10 0 60777 42300.00000 0 3948961.533 -17165388.825 -18416904.342 10 0 60777 43200.00000 0 5215165.119 -18903653.774 -16272069.105 10 0 60777 44100.00000 0 6182818.070 -20501275.405 -13810201.297 10 0 60777 45000.00000 0 6859814.255 -21895143.005 -11079203.945 10 0 60777 45900.00000 0 7266439.462 -23027112.389 -8132262.415 10 0 60777 46800.00000 0 7434255.087 -23846456.108 -5026800.510 10 0 60777 47700.00000 0 7404504.912 -24312020.768 -1823350.164 10 0 60777 48600.00000 0 7226113.837 -24393999.159 1415642.090 10 0 60777 49500.00000 0 6953365.114 -24075241.293 4627047.165 10 0 60777 50400.00000 0 6643356.472 -23352048.272 7748298.252 10 0 60777 51300.00000 0 6353345.001 -22234415.197 10718622.581 10 0 60777 52200.00000 0 6138095.214 -20745713.088 13480234.644 10 0 60777 53100.00000 0 6047344.243 -18921823.838 15979466.496 10 0 60777 54000.00000 0 6123492.606 -16809765.587 18167812.478 10 0 60777 54900.00000 0 6399618.866 -14465867.325 20002867.941 10 0 60777 55800.00000 0 6897902.156 -11953570.373 21449144.093 10 0 60777 56700.00000 0 7628518.769 -9340949.568 22478744.056 10 0 60777 57600.00000 0 8589058.636 -6698058.117 23071888.288 10 0 60777 58500.00000 0 9764485.368 -4094206.788 23217280.683 10 0 60777 59400.00000 0 11127640.687 -1595290.042 22912309.859 10 0 60777 60300.00000 0 12640271.397 738730.919 22163083.253 10 0 60777 61200.00000 0 14254535.425 2856085.328 20984294.682 10 0 60777 62100.00000 0 15914923.820 4715098.604 19398928.938 10 0 60777 63000.00000 0 17560518.637 6285669.867 17437809.752 10 0 60777 63900.00000 0 19127492.897 7550262.214 15139000.109 10 0 60777 64800.00000 0 20551749.050 8504366.872 12547066.400 10 0 60777 65700.00000 0 21771586.662 9156423.977 9712220.153 10 0 60777 66600.00000 0 22730288.872 9527205.008 6689353.327 10 0 60777 67500.00000 0 23378520.371 9648683.963 3536984.958 10 0 60777 68400.00000 0 23676437.327 9562445.416 316138.646 10 0 60777 69300.00000 0 23595421.357 9317696.602 -2910828.251 10 0 60777 70200.00000 0 23119364.983 8968967.104 -6081421.930 10 0 60777 71100.00000 0 22245454.382 8573592.666 -9134213.509 10 0 60777 72000.00000 0 20984415.852 8189088.713 -12010021.811 10 0 60777 72900.00000 0 19360214.547 7870523.877 -14653055.164 10 0 60777 73800.00000 0 17409216.532 7668003.998 -17011990.496 10 0 60777 74700.00000 0 15178847.572 7624372.674 -19040969.052 10 0 60777 75600.00000 0 12725802.793 7773225.648 -20700489.517 10 0 60777 76500.00000 0 10113880.148 8137323.453 -21958181.205 10 0 60777 77400.00000 0 7411526.327 8727470.357 -22789442.029 10 0 60777 78300.00000 0 4689195.913 9541908.364 -23177928.420 10 0 60777 79200.00000 0 2016632.550 10566253.657 -23115887.003 10 0 60777 80100.00000 0 -539815.432 11773980.202 -22604320.680 10 0 60777 81000.00000 0 -2919733.647 13127432.264 -21652984.808 10 0 60777 81900.00000 0 -5070928.903 14579325.199 -20280212.341 10 0 60777 82800.00000 0 -6951369.540 16074673.025 -18512570.080 10 0 60777 83700.00000 0 -8530697.580 17553062.813 -16384351.556 10 0 60777 84600.00000 0 -9791249.184 18951180.801 -13936915.452 10 0 60777 85500.00000 0 -10728540.470 20205483.772 -11217881.772 10 0 60778 0.00000 0 -11351198.378 21254902.463 -8280201.483 10 0 60778 900.00000 0 -11680340.237 22043462.443 -5181116.325 10 0 60778 1800.00000 0 -11748428.296 22522709.110 -1981033.790 10 0 60778 2700.00000 0 -11597650.010 22653834.786 1257664.911 10 0 60778 3600.00000 0 -11277893.350 22409415.229 4471855.351 10 0 60778 4500.00000 0 -10844405.142 21774681.653 7598914.699 10 0 60778 5400.00000 0 -10355233.632 20748273.742 10577954.718 10 0 60778 6300.00000 0 -9868565.538 19342441.581 13351017.453 10 0 60778 7200.00000 0 -9440072.124 17582688.257 15864209.152 10 0 60778 8100.00000 0 -9120377.936 15506868.706 18068749.674 10 0 60778 9000.00000 0 -8952760.032 13163783.524 19921916.836 10 0 60778 9900.00000 0 -8971175.162 10611327.646 21387867.686 10 0 60778 10800.00000 0 -9198697.801 7914272.140 22438321.645 10 0 60778 11700.00000 0 -9646434.153 5141772.301 23053093.513 10 0 60778 12600.00000 0 -10312956.758 2364706.027 23220467.482 10 0 60778 13500.00000 0 -11184282.318 -347047.149 22937406.533 10 0 60778 14400.00000 0 -12234392.583 -2927274.258 22209594.663 10 0 60778 15300.00000 0 -13426275.540 -5315934.925 21051312.475 10 0 60778 16200.00000 0 -14713442.728 -7461403.126 19485149.552 10 0 60778 17100.00000 0 -16041858.934 -9322353.792 17541559.829 10 0 60778 18000.00000 0 -17352203.689 -10869218.230 15258268.833 10 0 60778 18900.00000 0 -18582370.425 -12085150.162 12679544.152 10 0 60778 19800.00000 0 -19670099.454 -12966464.364 9855342.788 10 0 60778 20700.00000 0 -20555635.401 -13522531.418 6840351.252 10 0 60778 21600.00000 0 -21184298.660 -13775134.477 3692936.134 10 0 60778 22500.00000 0 -21508863.870 -13757315.955 474024.534 10 0 60778 23400.00000 0 -21491646.177 -13511763.056 -2754064.837 10 0 60778 24300.00000 0 -21106207.941 -13088800.055 -5928818.127 10 0 60778 25200.00000 0 -20338614.034 -12544071.560 -8988727.987 10 0 60778 26100.00000 0 -19188182.381 -11936013.816 -11874477.725 10 0 60778 27000.00000 0 -17667697.122 -11323220.048 -14530085.552 10 0 60778 27900.00000 0 -15803073.932 -10761810.346 -16903987.197 10 0 60778 28800.00000 0 -13632489.667 -10302916.610 -18950036.092 10 0 60778 29700.00000 0 -11205010.690 -9990388.469 -20628401.909 10 0 60778 30600.00000 0 -8578775.028 -9858817.100 -21906349.954 10 0 60778 31500.00000 0 -5818802.184 -9931960.862 -22758886.063 10 0 60778 32400.00000 0 -2994520.012 -10221640.048 -23169254.032 10 0 60778 33300.00000 0 -177110.065 -10727148.721 -23129275.265 10 0 60778 34200.00000 0 2563219.216 -11435209.971 -22639523.114 10 0 60778 35100.00000 0 5159918.774 -12320478.279 -21709327.474 10 0 60778 36000.00000 0 7552633.182 -13346569.567 -20356608.290 10 0 60778 36900.00000 0 9689477.240 -14467577.071 -18607540.001 10 0 60778 37800.00000 0 11528959.746 -15630010.387 -16496052.232 10 0 60778 38700.00000 0 13041473.677 -16775076.653 -14063175.504 10 0 60778 39600.00000 0 14210290.098 -17841207.775 -11356244.021 10 0 60778 40500.00000 0 15032013.977 -18766726.606 -8427970.820 10 0 60778 41400.00000 0 15516482.927 -19492538.541 -5335413.487 10 0 60778 42300.00000 0 15686113.710 -19964733.425 -2138851.324 10 0 60778 43200.00000 0 15574725.116 -20136986.209 1099403.052 10 0 60778 44100.00000 0 15225888.345 -19972653.279 4316233.075 10 0 60778 45000.00000 0 14690876.467 -19446474.360 7448962.941 10 0 60778 45900.00000 0 14026301.664 -18545806.994 10436591.750 10 0 60778 46800.00000 0 13291542.298 -17271340.758 13220991.596 10 0 60778 47700.00000 0 12546070.483 -15637260.884 15748045.050 10 0 60778 48600.00000 0 11846794.728 -13670854.597 17968699.216 10 0 60778 49500.00000 0 11245530.910 -11411577.217 19839915.680 10 0 60778 50400.00000 0 10786708.802 -8909617.934 21325498.208 10 0 60778 51300.00000 0 10505410.701 -6224026.018 22396782.977 10 0 60778 52200.00000 0 10425824.014 -3420476.235 23033179.178 10 0 60778 53100.00000 0 10560171.809 -568766.924 23222550.983 10 0 60778 54000.00000 0 10908164.844 2259845.362 22961435.079 10 0 60778 54900.00000 0 11456996.637 4995364.572 22255091.086 10 0 60778 55800.00000 0 12181880.410 7571715.518 21117385.208 10 0 60778 56700.00000 0 13047104.327 9929237.064 19570510.449 10 0 60778 57600.00000 0 14007560.044 12016906.713 17644549.413 10 0 60778 58500.00000 0 15010680.233 13794206.337 15376888.512 10 0 60778 59400.00000 0 15998703.958 15232553.771 12811494.750 10 0 60778 60300.00000 0 16911175.380 16316242.865 9998068.695 10 0 60778 61200.00000 0 17687571.674 17042854.692 6991089.392 10 0 60778 62100.00000 0 18269950.675 17423124.312 3848768.847 10 0 60778 63000.00000 0 18605507.880 17480269.831 631935.421 10 0 60778 63900.00000 0 18648936.005 17248812.497 -2597133.118 10 0 60778 64800.00000 0 18364488.259 16772937.628 -5775905.183 10 0 60778 65700.00000 0 17727658.578 16104465.051 -8842797.223 10 0 60778 66600.00000 0 16726407.690 15300513.972 -11738359.177 10 0 60778 67500.00000 0 15361882.501 14420959.937 -14406421.156 10 0 60778 68400.00000 0 13648597.146 13525790.241 -16795179.511 10 0 60778 69300.00000 0 11614066.258 12672468.562 -18858201.514 10 0 60778 70200.00000 0 9297903.624 11913419.368 -20555329.293 10 0 60778 71100.00000 0 6750421.593 11293737.827 -21853465.464 10 0 60778 72000.00000 0 4030787.387 10849221.846 -22727224.955 10 0 60778 72900.00000 0 1204811.015 10604809.578 -23159439.937 10 0 60778 73800.00000 0 -1657545.007 10573489.037 -23141507.395 10 0 60778 74700.00000 0 -4484831.966 10755726.881 -22673571.685 10 0 60778 75600.00000 0 -7206847.402 11139441.751 -21764537.468 10 0 60778 76500.00000 0 -9757320.618 11700524.706 -20431911.555 10 0 60778 77400.00000 0 -12076439.530 12403886.149 -18701475.495 10 0 60778 78300.00000 0 -14113113.367 13204986.185 -16606794.098 10 0 60778 79200.00000 0 -15826876.341 14051784.570 -14188568.472 10 0 60778 80100.00000 0 -17189352.182 14887028.127 -11493845.461 10 0 60778 81000.00000 0 -18185217.781 15650778.680 -8575098.650 10 0 60778 81900.00000 0 -18812625.335 16283073.785 -5489198.956 10 0 60778 82800.00000 0 -19083065.435 16726606.406 -2296295.602 10 0 60778 83700.00000 0 -19020677.535 16929308.566 941369.660 10 0 60778 84600.00000 0 -18661037.990 16846727.875 4160690.531 10 0 60778 85500.00000 0 -18049478.399 16444094.744 7298940.741 99